Wind_Speed
17 16 17 18 18 18 19 20 21 22 23 24 25 25 24 24 25 26 27 27 29 31 32 32 32 34 35 36 38 38 38 37 35 33 32 31 29 29 29 30 30 30 29 30
14 15 16 16 16 17 18 19 20 22 23 24 25 24 24 25 26 27 28 30 32 33 34 35 37 38 38 38 39 39 39 38 35 33 33 32 30 29 27 27 27 28 27 27
13 14 14 15 15 16 16 17 18 19 20 22 24 24 24 25 26 28 29 31 33 35 36 38 40 40 40 39 38 39 40 38 36 35 33 31 30 29 29 28 27 27 27 27
11 12 13 13 13 14 14 15 16 17 18 19 21 23 23 25 27 28 30 31 32 34 36 38 39 39 39 38 38 40 39 38 38 36 34 33 33 32 32 31 28 27 27 28
9 9 10 10 11 12 12 13 14 15 16 16 18 20 20 23 26 27 29 30 30 31 31 32 33 35 36 36 37 39 39 39 39 38 37 37 36 35 35 34 32 32 31 31
6 7 8 9 10 11 11 12 13 13 14 15 16 18 19 20 21 23 24 26 27 28 28 28 30 32 34 35 37 38 40 40 41 41 42 41 40 39 39 38 37 37 37 36
3 5 7 9 10 10 11 12 13 13 13 14 15 17 17 18 20 22 23 25 27 28 29 30 31 32 33 35 37 39 40 41 43 44 45 45 44 43 43 43 43 43 42 42
2 3 5 7 9 10 11 13 14 15 15 15 16 17 18 19 22 24 25 26 28 30 31 32 34 35 37 39 40 42 44 45 46 48 48 48 48 47 47 47 48 47 47 47
2 2 5 7 9 11 12 13 15 17 17 17 18 19 20 22 24 25 26 28 30 32 34 36 37 38 40 42 43 45 47 48 49 51 52 52 52 53 53 52 52 52 52 51
4 4 6 8 10 11 12 14 16 18 20 21 21 21 23 25 26 28 30 32 34 36 38 39 40 41 43 45 46 47 49 50 51 53 54 55 56 56 56 56 56 56 56 56
7 7 8 9 10 11 12 14 16 18 21 23 24 24 25 27 30 32 34 36 38 39 41 43 44 45 47 48 50 51 52 53 54 55 56 57 57 58 58 58 59 59 59 59
8 9 9 10 10 11 13 15 17 19 21 23 25 27 28 31 33 35 37 39 41 43 44 46 48 49 51 52 53 54 56 57 58 59 59 59 59 59 59 60 60 60 60 61
9 9 9 10 11 12 14 16 18 20 22 24 26 28 31 33 35 37 39 41 43 46 48 49 51 52 54 55 57 58 60 60 61 61 61 60 59 58 58 58 58 57 57 58
9 10 10 11 12 14 15 17 19 21 22 25 27 30 32 35 37 39 42 44 46 49 50 52 53 54 56 58 59 60 60 61 61 61 61 60 59 58 56 54 53 52 51 51
11 11 12 13 13 14 16 18 20 22 24 27 29 32 34 37 39 41 44 47 49 50 51 52 54 56 58 59 59 60 61 61 61 61 60 59 57 55 53 50 48 47 46 45
12 13 13 13 14 15 17 19 22 24 26 28 31 33 36 38 41 44 47 49 50 51 52 53 55 57 57 58 59 61 61 61 61 60 59 57 55 53 51 49 47 44 42 41
11 13 14 15 16 17 19 21 23 25 28 31 33 36 38 40 42 47 50 50 51 52 53 55 56 56 57 59 60 61 60 59 59 58 57 55 53 50 48 47 44 42 40 39
11 12 14 16 18 19 22 24 26 27 30 32 35 39 41 43 45 49 51 51 52 53 54 55 55 56 58 59 60 59 59 58 57 56 54 52 49 47 46 44 42 41 39 38
12 14 16 18 19 21 23 26 28 31 32 35 38 41 43 46 47 47 50 51 52 53 54 55 56 58 59 59 59 58 57 55 53 52 50 47 45 44 42 41 40 39 38 36
14 16 18 20 21 23 25 27 30 33 35 38 41 44 46 49 50 50 50 51 52 53 55 56 57 58 58 58 58 57 54 52 50 49 47 45 43 41 39 38 37 36 36 35
16 17 19 20 22 24 26 29 32 35 38 40 43 45 48 50 52 53 53 52 53 55 56 56 57 58 57 57 56 55 52 50 49 47 45 42 39 37 35 34 33 32 32 32
17 19 20 21 23 25 27 30 32 35 38 41 44 47 49 51 52 53 53 53 54 55 55 56 56 56 56 55 55 54 51 49 46 45 42 38 35 33 32 31 29 28 28 28
18 20 21 22 24 26 28 31 33 36 40 43 46 48 50 52 53 53 53 54 54 54 54 54 54 54 54 54 54 52 50 47 43 41 38 34 30 28 27 26 24 24 25 25
19 20 21 22 24 26 29 31 34 37 41 44 47 50 51 52 53 54 53 52 52 53 53 52 52 53 53 53 52 50 48 44 40 37 33 29 26 23 21 19 18 18 19 21
20 20 21 23 25 27 29 32 35 38 41 45 48 50 52 52 53 53 52 51 52 51 51 51 52 53 53 52 50 49 45 41 37 33 29 25 22 19 16 14 12 13 15 17
20 21 22 24 26 28 30 33 36 38 42 45 48 50 52 53 53 52 50 50 51 50 50 50 51 52 52 51 49 47 43 39 36 31 27 23 18 15 12 10 9 9 11 13
Wind_Direction
249 250 253 257 260 261 262 261 258 256 257 257 259 262 265 266 266 268 272 274 276 277 281 282 286 288 288 290 293 293 295 297 299 300 301 300 295 291 286 277 272 271 267 264
244 247 255 261 262 263 264 265 264 262 262 262 262 264 267 269 271 274 277 278 279 280 282 283 283 283 285 287 289 291 292 294 297 300 301 303 301 299 296 288 279 276 268 266
244 252 259 263 266 269 270 273 273 273 271 270 269 268 270 272 275 277 282 282 281 281 282 283 282 283 285 285 286 289 291 293 295 297 299 301 300 299 299 294 286 277 273 270
251 258 261 261 267 275 279 282 283 283 283 282 279 279 276 278 279 281 284 286 286 286 286 286 284 284 286 285 285 288 290 293 293 293 295 298 298 297 296 295 288 284 278 275
260 264 261 264 272 280 288 291 292 294 296 295 294 292 290 286 283 283 284 289 290 291 292 289 286 286 287 287 286 287 289 290 290 290 291 292 292 292 291 290 287 283 280 276
266 271 264 269 278 285 292 299 304 305 306 303 302 300 298 294 292 289 289 292 293 293 295 295 293 290 290 290 289 289 289 289 289 289 289 289 288 287 287 285 283 281 278 274
275 286 276 272 280 286 293 303 310 311 309 310 309 305 301 296 294 292 293 295 296 295 296 296 297 295 294 293 293 292 291 290 289 288 286 286 285 283 282 281 280 278 274 270
266 272 287 284 284 289 295 303 308 312 313 311 309 308 304 299 297 297 297 298 298 300 299 299 299 296 296 296 295 293 292 291 289 288 287 286 285 283 281 280 278 275 272 270
321 287 290 292 292 295 300 303 310 311 314 313 311 308 303 303 302 302 302 302 303 303 302 300 298 297 297 296 294 293 292 291 290 288 287 286 285 283 281 279 277 274 271 269
337 322 306 306 303 305 306 308 310 315 316 316 315 311 309 309 310 309 308 307 306 305 304 303 301 300 298 297 296 294 293 291 290 288 287 286 285 283 281 278 276 273 271 268
324 321 319 315 312 312 311 312 313 314 315 314 315 314 314 312 313 312 311 310 309 308 307 306 305 304 303 302 300 299 297 295 293 292 290 289 287 284 281 279 276 273 270 268
323 325 325 324 322 320 316 315 313 312 313 314 315 316 316 315 314 313 313 312 311 311 310 310 309 308 307 306 305 303 302 300 298 296 294 292 289 286 284 281 278 275 272 269
329 330 330 330 328 325 320 317 315 314 314 315 316 317 317 317 316 315 314 314 314 314 314 313 312 312 311 310 308 307 305 303 301 299 297 295 293 290 287 283 281 277 274 270
330 328 330 330 327 324 320 317 316 317 318 319 319 319 319 318 318 318 318 318 318 318 318 317 315 314 313 312 310 308 307 305 303 301 299 297 295 292 289 286 283 279 275 271
329 328 328 328 328 326 323 321 322 324 324 322 322 321 322 322 322 322 321 321 321 321 320 319 318 317 315 313 312 310 308 306 304 303 301 299 296 293 290 286 283 279 275 271
329 327 328 330 331 331 328 327 328 328 326 324 324 325 326 326 326 325 324 324 323 322 321 320 318 317 316 314 312 311 309 307 305 304 302 299 296 293 289 286 282 278 274 270
326 327 329 331 333 331 328 329 330 329 328 328 329 330 330 330 330 328 326 326 325 324 323 321 320 318 317 315 314 313 311 308 306 304 301 298 295 291 288 285 281 276 272 269
325 325 328 330 332 332 331 331 331 332 332 332 332 333 333 333 333 330 328 327 326 325 324 323 321 320 319 317 316 314 313 310 307 305 301 298 293 290 286 283 278 273 270 267
326 326 328 330 333 332 331 332 333 335 336 335 336 336 335 334 333 332 329 328 328 327 327 326 324 323 321 320 319 317 315 313 310 307 303 299 294 290 286 282 276 271 267 265
325 326 328 331 332 333 333 335 335 336 337 338 338 337 336 335 334 334 332 331 331 331 330 329 327 326 325 323 322 320 318 315 312 309 306 302 296 291 286 282 275 269 265 262
323 324 327 330 332 333 335 336 337 337 339 339 339 338 338 337 336 336 335 334 334 333 332 331 330 329 327 326 325 324 321 318 316 313 309 304 299 292 287 283 276 268 262 258
322 324 328 331 333 334 336 337 337 338 339 339 340 339 339 338 338 337 337 336 335 335 334 333 333 332 330 330 329 327 325 322 319 318 314 308 303 296 289 284 276 266 260 256
321 324 327 330 332 333 335 336 337 338 339 340 341 341 340 340 340 339 338 338 337 338 337 337 337 336 335 333 332 331 329 326 323 322 319 314 309 302 295 286 274 263 257 252
320 323 325 327 329 332 334 336 337 338 340 341 342 342 342 342 341 341 340 340 341 341 341 341 340 341 340 339 338 336 334 332 329 326 324 321 317 311 304 290 274 263 255 248
321 323 324 327 329 332 334 335 337 339 341 342 343 343 343 343 343 343 343 343 344 344 344 344 345 345 345 345 344 342 341 340 338 336 334 329 324 320 315 303 281 263 253 244
320 322 324 327 330 332 334 335 337 339 341 343 344 345 345 345 345 345 346 346 346 347 347 347 348 349 349 350 350 351 350 349 348 346 344 342 337 333 326 314 292 268 252 243
Height
5857 5859 5858 5859 5860 5860 5859 5859 5859 5859 5858 5859 5858 5858 5858 5858 5858 5858 5858 5857 5856 5855 5853 5851 5850 5848 5845 5841 5837 5834 5831 5826 5822 5820 5817 5813 5810 5809 5808 5807 5807 5807 5808 5810
5855 5856 5856 5857 5857 5857 5857 5856 5856 5856 5855 5855 5854 5854 5854 5853 5853 5853 5853 5852 5851 5849 5847 5845 5843 5840 5837 5834 5830 5827 5824 5821 5818 5816 5813 5809 5806 5805 5803 5801 5801 5802 5803 5804
5853 5854 5854 5855 5855 5855 5854 5854 5853 5852 5852 5851 5851 5851 5850 5849 5849 5848 5847 5846 5844 5842 5840 5837 5834 5831 5829 5825 5822 5820 5817 5814 5811 5809 5807 5804 5801 5799 5798 5796 5795 5796 5797 5797
5851 5852 5852 5853 5852 5852 5852 5851 5850 5849 5848 5847 5847 5846 5847 5845 5845 5843 5842 5839 5837 5834 5832 5829 5826 5823 5820 5817 5815 5813 5809 5807 5804 5802 5800 5798 5796 5794 5792 5789 5788 5789 5789 5790
5850 5850 5851 5851 5851 5850 5850 5849 5848 5847 5846 5845 5843 5843 5843 5841 5839 5838 5836 5833 5830 5827 5824 5820 5818 5815 5812 5809 5806 5804 5801 5799 5797 5794 5792 5790 5788 5786 5785 5783 5782 5782 5782 5782
5848 5849 5849 5849 5849 5848 5848 5847 5846 5845 5844 5843 5841 5840 5839 5836 5834 5832 5830 5827 5824 5821 5818 5814 5811 5808 5805 5801 5798 5795 5792 5790 5787 5784 5782 5780 5778 5777 5776 5774 5774 5773 5773 5773
5848 5848 5847 5847 5847 5847 5846 5846 5845 5843 5842 5841 5839 5837 5835 5832 5830 5827 5825 5822 5818 5815 5812 5808 5805 5801 5797 5793 5790 5786 5783 5779 5776 5773 5770 5768 5767 5765 5764 5763 5762 5762 5761 5761
5846 5847 5846 5846 5845 5845 5844 5843 5843 5841 5839 5838 5836 5833 5832 5828 5825 5822 5819 5816 5813 5808 5805 5801 5797 5793 5789 5784 5780 5776 5772 5768 5764 5761 5758 5756 5753 5751 5750 5749 5748 5747 5747 5747
5845 5846 5845 5844 5843 5843 5842 5841 5840 5838 5835 5834 5832 5830 5827 5824 5820 5817 5814 5810 5806 5802 5798 5794 5789 5784 5780 5775 5770 5765 5761 5756 5752 5747 5743 5740 5738 5735 5733 5732 5731 5730 5730 5731
5845 5844 5844 5843 5841 5840 5840 5838 5837 5834 5832 5829 5828 5825 5823 5819 5815 5811 5807 5803 5799 5794 5790 5785 5780 5774 5769 5764 5758 5753 5748 5742 5738 5733 5728 5724 5721 5718 5716 5714 5712 5712 5711 5711
5843 5843 5842 5841 5839 5838 5837 5836 5833 5831 5828 5826 5823 5822 5817 5813 5809 5805 5800 5795 5790 5785 5779 5774 5768 5762 5756 5750 5744 5738 5732 5726 5721 5716 5711 5706 5702 5699 5696 5694 5692 5691 5691 5691
5842 5842 5840 5839 5838 5836 5834 5832 5830 5828 5825 5822 5819 5818 5811 5807 5802 5797 5792 5787 5781 5775 5768 5762 5755 5748 5741 5734 5727 5720 5714 5708 5702 5696 5691 5686 5682 5678 5675 5672 5670 5669 5669 5669
5841 5840 5839 5838 5838 5835 5832 5829 5827 5824 5821 5818 5815 5814 5806 5801 5795 5790 5784 5778 5771 5764 5756 5749 5741 5733 5725 5718 5710 5703 5695 5688 5682 5675 5670 5665 5661 5657 5653 5651 5648 5647 5646 5646
5840 5838 5838 5837 5834 5832 5829 5826 5824 5821 5818 5814 5810 5806 5801 5795 5789 5782 5775 5768 5760 5752 5744 5735 5727 5719 5711 5702 5694 5686 5678 5670 5663 5656 5650 5644 5640 5635 5632 5630 5627 5626 5625 5624
5838 5837 5835 5833 5831 5829 5826 5824 5821 5818 5814 5810 5805 5800 5794 5788 5781 5773 5765 5757 5749 5741 5732 5723 5714 5705 5696 5687 5679 5670 5661 5653 5644 5637 5630 5624 5619 5615 5612 5609 5608 5606 5606 5606
5836 5835 5833 5831 5829 5826 5824 5821 5817 5814 5810 5805 5800 5794 5788 5780 5772 5764 5756 5747 5738 5730 5721 5711 5702 5692 5683 5673 5664 5654 5645 5636 5626 5618 5611 5605 5599 5595 5592 5590 5589 5588 5588 5589
5835 5833 5831 5829 5827 5824 5821 5818 5814 5810 5805 5800 5793 5788 5780 5774 5765 5755 5746 5737 5728 5719 5709 5700 5690 5680 5670 5659 5649 5638 5628 5619 5610 5601 5594 5587 5582 5577 5574 5572 5571 5571 5572 5572
5834 5832 5829 5827 5825 5821 5820 5814 5810 5806 5801 5794 5788 5781 5773 5765 5758 5747 5736 5727 5718 5708 5699 5688 5678 5667 5656 5645 5634 5623 5613 5603 5593 5584 5576 5570 5564 5561 5558 5556 5555 5555 5556 5557
5832 5830 5827 5824 5821 5818 5815 5810 5805 5800 5795 5789 5781 5774 5766 5758 5751 5742 5730 5720 5709 5698 5687 5676 5665 5654 5642 5630 5619 5608 5597 5587 5577 5568 5560 5553 5548 5545 5542 5540 5539 5540 5541 5543
5830 5827 5825 5821 5818 5814 5812 5806 5800 5796 5790 5782 5775 5767 5758 5749 5740 5733 5721 5710 5699 5687 5676 5665 5653 5641 5629 5617 5605 5593 5582 5572 5562 5553 5545 5538 5533 5529 5527 5525 5525 5525 5527 5529
5827 5824 5821 5818 5815 5811 5807 5802 5797 5791 5785 5777 5769 5760 5751 5741 5731 5721 5710 5699 5688 5677 5666 5654 5642 5629 5617 5604 5592 5580 5569 5558 5548 5539 5531 5524 5519 5515 5513 5511 5511 5512 5513 5516
5824 5821 5818 5815 5811 5809 5803 5798 5793 5787 5780 5772 5764 5754 5745 5735 5724 5713 5702 5691 5680 5669 5657 5645 5633 5620 5607 5594 5581 5569 5557 5546 5536 5527 5518 5512 5506 5502 5500 5499 5499 5500 5502 5506
5821 5818 5814 5812 5810 5804 5799 5794 5788 5782 5775 5767 5758 5749 5739 5728 5717 5706 5695 5684 5672 5661 5649 5637 5624 5612 5598 5585 5571 5559 5547 5535 5525 5517 5509 5502 5497 5493 5490 5488 5489 5490 5493 5497
5818 5814 5811 5808 5805 5800 5795 5790 5784 5777 5769 5761 5752 5742 5732 5721 5710 5699 5688 5677 5666 5654 5642 5630 5618 5605 5592 5578 5564 5551 5538 5527 5517 5509 5501 5495 5490 5486 5483 5481 5482 5484 5486 5490
5814 5811 5808 5804 5801 5796 5791 5786 5779 5772 5765 5756 5747 5737 5726 5716 5705 5693 5682 5671 5660 5649 5637 5625 5612 5600 5586 5572 5558 5545 5532 5521 5511 5503 5496 5490 5485 5482 5479 5478 5478 5479 5482 5484
5810 5807 5804 5801 5796 5792 5787 5782 5775 5768 5760 5752 5743 5733 5722 5710 5699 5688 5677 5666 5655 5644 5633 5621 5608 5595 5582 5568 5555 5541 5529 5518 5508 5500 5493 5487 5483 5480 5478 5476 5476 5477 5479 5481